Regional Weather Roundup
Issued by NWS

Home | Current Version | Previous Version | Graphics & Text | Print | Product List | Glossary On
Versions: 1 2 3 4 5 6 7 8 9 10 11 12 13 14 15 16 17 18 19 20 21 22 23 24 25 26 27 28 29 30 31 32 33 34 35 36 37 38 39 40 41 42 43 44 45 46 47 48 49 50
000
ASUS43 KDMX 191301
RWRIA

WEATHER ROUNDUP FOR IOWA
NATIONAL WEATHER SERVICE DES MOINES IA
800 AM CDT THU APR 19 2018

NOTE: "FAIR" INDICATES FEW OR NO CLOUDS BELOW 12,000 FEET WITH NO
SIGNIFICANT WEATHER AND/OR OBSTRUCTIONS TO VISIBILITY.

* - THESE STATIONS ARE NOT NWS STATIONS...THUS NOT UNDER NWS
QUALITY CONTROL.  THEY ALSO DO NOT REPORT WEATHER SUCH
AS PRECIPITATION OR FOG.

IAZ001>003-012>014-020>022-031>034-043>046-191400-
   NORTHWEST IOWA

CITY           SKY/WX    TMP DP  RH WIND       PRES   REMARKS
CARROLL *      SUNNY     32  28  86 N7        30.41R WCI  26
CHEROKEE *     CLOUDY    27  22  82 CALM      30.43R
DENISON *      SUNNY     30  27  86 N8        30.43R WCI  23
LE MARS *      CLOUDY    28  21  74 CALM      30.43R
ORANGE CITY *  MOSUNNY   28  19  69 NE6       30.41S WCI  22
SHELDON *      CLOUDY    21  16  79 N6        30.41R WCI  14
SIOUX CITY     SUNNY     31  26  82 CALM      30.44R
SPENCER        CLOUDY    18  13  80 N3        30.41R
STORM LAKE *   CLOUDY    27  19  74 N7        30.41R WCI  19
$$

IAZ055>058-069>071-079>083-090>094-191400-
   SOUTHWEST IOWA

CITY           SKY/WX    TMP DP  RH WIND       PRES   REMARKS
ATLANTIC *     SUNNY     32  30  93 N6        30.41R WCI  26
AUDUBON *      SUNNY     32  28  86 NW3       30.41R
CLARINDA *     SUNNY     32  28  86 N5        30.44R WCI  27
COUNCIL BLFS * SUNNY     34  34 100 NW7       30.42R WCI  28
CRESTON *      SUNNY     32  28  86 N9        30.40R WCI  24
HARLAN  *      SUNNY     32  30  93 N6        30.45R WCI  26
LAMONI         SUNNY     32  28  85 N10       30.37R WCI  24
RED OAK *      SUNNY     32  30  93 CALM      30.43R
SHENANDOAH *   SUNNY     32  28  86 CALM      30.44R
$$

IAZ047>049-059>061-072>074-084-191400-
   CENTRAL IOWA

CITY           SKY/WX    TMP DP  RH WIND       PRES   REMARKS
AMES           SUNNY     31  26  82 N9        30.39R WCI  23
ANKENY *       CLOUDY    32  28  86 N7G13     30.40R WCI  26
BOONE *        SUNNY     30  27  86 N8        30.38R WCI  23
CHARITON *     SUNNY     32  30  93 NW6       30.37R WCI  26
DES MOINES     MOSUNNY   35  27  72 N6        30.39R WCI  30
GRINNELL*      CLOUDY    32  28  84 N8        30.37R WCI  24
KNOXVILLE *    SUNNY     34  28  80 N9        30.36R WCI  26
MARSHALLTOWN   CLOUDY    30  25  81 N7        30.36R WCI  23
NEWTON *       MOSUNNY   32  28  86 N8        30.37R WCI  25
PELLA *        CLOUDY    33  28  84 N5        30.38R WCI  28
$$

IAZ004>006-015-016-023>025-035-036-191400-
   NORTH CENTRAL IOWA

CITY           SKY/WX    TMP DP  RH WIND       PRES   REMARKS
ALGONA *       CLOUDY    19  14  79 N7        30.41R WCI  10
CLARION *      CLOUDY    23  18  80 N6        30.39R WCI  16
ESTHERVILLE    CLOUDY    14   8  77 NW9       30.42R WCI   2
FORT DODGE *   CLOUDY    28  21  75 N7        30.41R WCI  21
MASON CITY     CLOUDY    19  16  88 CALM      30.40R
FOREST CITY *  FAIR      27  21  80 N6        30.39R WCI  20
WEBSTER CITY * SUNNY     27  23  86 N8        30.38R WCI  18
IOWA FALLS *   FAIR      28  23  83 N7        30.38R WCI  20
$$

IAZ007>011-017>019-026>030-037>042-050>054-066-191400-
   NORTHEAST IOWA

CITY           SKY/WX    TMP DP  RH WIND       PRES   REMARKS
CEDAR RAPIDS   FAIR      33  27  78 N9        30.33R WCI  25
CHARLES CITY * FAIR      21  21 100 N9        30.38R WCI  11
CLINTON *      FAIR      33  30  88 N13       30.32R WCI  24
DECORAH *      FAIR      27  23  86 NW3       30.35R
DUBUQUE        FAIR      29  22  75 N8        30.33R WCI  21
MONTICELLO *   FAIR      30  27  86 NW7       30.34R WCI  23
OELWEIN *      FAIR      25  25 100 N6        30.36R WCI  18
WATERLOO       FAIR      26  21  81 NW6       30.37R WCI  19
$$

IAZ064-065-067-068-078-191400-
   EAST CENTRAL IOWA

CITY           SKY/WX    TMP DP  RH WIND       PRES   REMARKS
DAVENPORT      FAIR      32  28  85 N12       30.34R WCI  23
IOWA CITY      FAIR      36  27  69 N8        30.35R WCI  30
MT. PLEASANT * SUNNY     34  32  93 N8        30.34R WCI  27
MUSCATINE *    FAIR      36  30  80 N12       30.34R WCI  27
QUAD CITIES    FAIR      37  30  75 N6        30.32R WCI  32
$$

IAZ062-063-075>077-085>089-095>099-191400-
   SOUTHEAST IOWA

CITY           SKY/WX    TMP DP  RH WIND       PRES   REMARKS
BURLINGTON     CLOUDY    37  31  78 N9        30.31R WCI  30
FAIRFIELD *    SUNNY     34  30  86 N10       30.34R WCI  26
FORT MADISON * CLOUDY    36  32  87 N7        30.33R WCI  30
KEOKUK *       SUNNY     36  32  87 N9        30.33R WCI  29
OSKALOOSA *    FAIR      32  29  88 N6        30.36R WCI  26
CENTERVILLE *    N/A     32  32 100 CALM      30.37R
OTTUMWA        SUNNY     33  28  81 N9        30.35R WCI  25
WASHINGTON *   SUNNY     34  34 100 N10       30.34R WCI  26
$$

ABBREVIATIONS USED IN REMARKS
   TC - TEMPERATURES IN CELSIUS
  WCI - WIND CHILL INDEX
   HX - HEAT INDEX
  VSB - VISIBILITY
$$





USA.gov is the U.S. government's official web portal to all federal, state and local government web resources and services.